Location: Borowa G�ra
(52.4844°N, 21.0318°E)
Time: 12:51:47
(UTC+00:00)

Daily predictions for brighter satellites

Satellite Brightness Start Highest point End
(mag) Time Altitude Azimuth Time Altitude Azimuth Time Altitude Azimuth
Envisat 3.9 15:42:48 10° S 15:47:47 56° W 15:52:49 10° NNW
H-2A R/B 3.1 15:45:51 10° ESE 15:49:49 23° ENE 15:53:54 10° N
H-2A R/B 2.5 15:48:46 10° NNE 15:53:01 45° E 15:57:08 10° S
Aureole 3 Rocket 3.7 15:52:00 10° NNE 15:54:31 21° ENE 15:57:22 10° ESE
SeaSat 1 2.6 15:49:49 10° NNE 15:54:47 83° WNW 15:59:43 10° SW
Cosmos 44 3.8 15:50:48 10° SSW 15:55:25 45° ESE 16:00:21 10° NE
Cosmos 2112 Rocket 4.0 15:50:10 10° NNW 15:55:27 73° ENE 16:00:39 10° SSE
Cosmos 158 Rocket 4.4 15:50:11 10° NNW 15:55:33 73° WSW 16:00:56 10° SSE
Cosmos 1939 Rocket 3.2 15:52:26 10° SE 15:56:19 45° ENE 16:00:10 10° N
Helios 1A Rocket 4.4 15:53:56 10° E 15:56:38 17° ENE 15:59:20 10° NNE
Cosmos 1602 Rocket 4.5 15:54:04 10° SSE 15:57:48 28° E 16:01:34 10° NNE
FengYun 1-2 T 4.3 15:52:41 10° SSE 15:58:17 79° ENE 16:03:58 10° NNW
NOSS 3-1 (A) 4.0 15:51:17 10° NW 15:58:27 75° NE 16:06:55 10° SE
COSMOS 2406 3.4 15:54:27 10° NNW 16:00:09 55° NE 16:05:49 10° SE
SJ 16-02 1.3 15:56:04 10° SSW 16:00:28 74° ESE 16:04:52 10° NNE
Cosmos 2082 Rocket 2.9 15:55:22 10° NNW 16:00:34 34° NE 16:05:44 10° ESE
Cosmos 1844 Rocket 2.7 15:55:03 10° SSW 16:00:42 78° ESE 16:06:22 10° NNE
Cosmos 990 Rocket 4.5 15:56:08 10° S 16:00:57 40° ESE 16:05:47 10° NE
Cosmos 1818 3.6 15:57:36 10° SW 16:03:03 90° SSE 16:08:34 10° NE
Cosmos 1844 3.8 15:58:53 10° SSW 16:04:31 70° ESE 16:10:17 10° NE
YAOGAN 1 3.6 16:01:05 10° ESE 16:04:35 25° ENE 16:08:06 10° N
Cosmos 1892 Rocket 3.8 16:01:11 10° SSW 16:05:31 75° WNW 16:09:53 10° N
ATLAS 2AS CENTAUR R/B 3.8 15:58:38 10° W 16:06:01 41° NNW 16:13:08 10° NE
H-2A R/B 3.1 16:02:53 10° S 16:07:02 63° WSW 16:11:23 10° NNW
Meteor 2-1 Rocket 4.2 16:04:13 10° NNW 16:09:48 89° WSW 16:15:19 10° S
IRS-1C Rocket 4.4 16:05:20 10° SE 16:10:17 45° ENE 16:15:18 10° N
Cosmos 1812 Rocket 3.7 16:09:00 10° N 16:13:18 52° ENE 16:17:33 10° SSE
Cosmos 1703 3.6 16:09:50 10° SSE 16:13:29 41° E 16:17:09 10° NNE
Cosmos 2227 Rocket 4.3 16:10:46 10° NW 16:13:46 14° NNW 16:16:46 10° NNE
ATLAS 5 CENTAUR R/B 3.0 16:10:45 10° W 16:14:39 30° NNW 16:19:07 10° NE
X-37B 2.8 16:13:06 10° WSW 16:15:33 21° S 16:18:01 10° SE
ISS -3.6 16:14:40 10° WSW 16:18:03 74° S 16:20:51 14° E
Iridium 4 Rocket 3.9 16:13:48 10° N 16:18:58 41° ENE 16:23:42 10° SSE
Okean O Rocket 2.1 16:15:08 10° S 16:19:32 68° WSW 16:23:57 10° NNW
ADEOS Rocket 4.3 16:15:13 10° N 16:20:32 36° WNW 16:25:33 10° SW
CZ-4C R/B 3.6 16:15:28 10° WNW 16:20:42 33° N 16:26:35 11° NE
Meteor 2-13 Rocket 4.4 16:16:49 10° S 16:22:56 80° E 16:29:08 10° NNE
SKYMED 2 4.0 16:19:36 10° NNE 16:23:43 39° E 16:27:49 10° SSE
CSL-04 Rocket 4.4 16:19:39 10° ESE 16:24:23 31° ENE 16:29:11 10° N
USA 234 3.5 16:18:32 12° ENE 16:24:39 64° N 16:31:06 10° W
CZ-4 R/B 1.8 16:21:29 10° SE 16:25:12 37° ENE 16:28:52 10° N
ERS-2 3.4 16:24:04 13° NE 16:26:16 21° E 16:29:07 10° SE
Cosmos 2278 Rocket 3.0 16:26:07 10° SSE 16:31:01 31° ESE 16:35:18 13° NE
Okean-O 3.0 16:27:01 10° SE 16:31:12 42° ENE 16:35:24 10° N
CZ-2C R/B 3.2 16:30:48 10° SSE 16:36:20 75° ENE 16:42:08 10° NNW
NOSS 2-1 (E) 3.1 16:33:59 10° SSW 16:37:13 54° SE 16:39:26 20° ENE
Cosmos 2297 Rocket 4.4 16:35:09 10° NNW 16:37:24 12° N 16:39:39 10° NNE
Cosmos 1346 Rocket 3.7 16:34:07 10° SSE 16:37:25 26° E 16:39:37 16° NE
Cosmos 1340 2.7 16:33:51 10° S 16:37:32 58° E 16:41:15 10° NNE
CZ-4B R/B 4.4 16:32:42 10° S 16:38:08 48° W 16:43:37 10° NNW
COSMOS 2455 3.6 16:32:21 10° WSW 16:38:11 49° NW 16:44:04 10° NE
Cosmos 1455 4.1 16:42:50 10° NNW 16:46:21 34° W 16:49:51 10° SSW
Cosmos 405 2.9 16:43:27 10° NNW 16:47:01 88° ENE 16:50:32 10° SSE
ARGOS 3.4 16:44:23 10° SE 16:49:29 46° ENE 16:54:38 10° N
Cosmos 1626 Rocket 3.8 16:47:26 10° SSW 16:51:50 71° WNW 16:56:19 10° N
Cosmos 1092 Rocket 3.9 16:46:29 10° S 16:52:38 83° E 16:58:49 10° NNE
Cosmos 1869 4.0 16:49:53 10° N 16:53:22 30° ENE 16:54:29 26° ESE
Cosmos 2263 Rocket 4.2 16:50:48 10° W 16:55:03 21° NNW 16:59:17 10° NNE
Cosmos 1898 Rocket 3.5 16:50:13 10° SSW 16:55:29 88° ESE 17:00:45 10° NNE
CZ-2C R/B 3.7 16:52:21 16° NE 16:55:32 25° E 17:00:06 10° SE
PSLV R/B 4.3 16:52:01 11° NNE 16:55:52 42° E 16:59:52 10° S
Cosmos 372 Rocket 4.4 16:51:47 10° S 16:56:38 40° ESE 16:59:57 19° NE
TELKOM 3 4.1 16:56:04 10° WSW 16:58:05 30° SSW 16:58:27 28° S
Cosmos 494 Rocket 4.4 16:54:48 10° NNW 16:59:40 40° NE 17:02:23 23° ESE
CZ-4B R/B 1.5 16:59:33 10° N 17:02:52 74° WNW 17:06:05 10° SSW
Cosmos 1328 3.9 17:00:03 10° SSW 17:04:02 79° W 17:08:02 10° N
Cosmos 1048 Rocket 4.0 16:59:29 10° NNW 17:04:34 56° ENE 17:09:13 12° SE
MOS 1 Rocket 2.9 17:00:15 10° NNE 17:04:34 79° ESE 17:08:53 10° S
Meteor 2-15 4.4 16:58:48 10° N 17:05:01 86° E 17:11:10 10° S
CZ-2D R/B 4.1 17:02:40 10° S 17:06:25 51° W 17:10:10 10° NNW
Cosmos-2242 3.0 17:04:15 10° NNW 17:08:34 86° W 17:12:53 10° S
Meteor 1-11 4.1 17:04:44 10° S 17:10:22 71° E 17:15:59 10° NNE
COSMO-SKYMED 1 2.7 17:07:32 10° NNE 17:11:54 75° WNW 17:16:14 10° SSW
BREEZE-M DEB (TANK) 3.2 17:14:56 10° W 17:16:56 31° SSW 17:17:14 30° S
Cosmos 1937 Rocket 3.6 17:12:50 10° SSW 17:18:10 83° WNW 17:23:07 12° NNE
Cosmos 1758 Rocket 3.5 17:14:02 10° S 17:18:31 88° WNW 17:23:03 10° N
Cosmos 2098 Rocket 4.3 17:11:58 10° S 17:19:26 86° E 17:26:29 10° N
USA 290 3.9 17:18:09 10° NW 17:21:05 34° WSW 17:23:59 10° S
CSL-04 Debris 4.0 17:17:42 10° SSE 17:23:05 79° ENE 17:28:30 10° NNW
SL-08 RB Rocket 3.6 17:21:13 18° SE 17:24:25 59° ENE 17:28:50 10° N
Cosmos 1833 Rocket 3.6 17:19:42 10° NW 17:25:08 50° WSW 17:30:31 10° S
NOSS 2-1 (C) 3.5 17:23:09 10° WSW 17:26:25 52° NW 17:27:19 39° NNE
Cosmos 2221 3.4 17:23:55 10° N 17:26:47 32° NNE 17:26:47 32° NNE
H-2A R/B 2.3 17:23:42 10° S 17:28:46 71° WSW 17:34:02 10° NNW
H-2A R/B 4.1 17:25:04 10° N 17:28:47 27° WNW 17:32:25 10° WSW
NOSS 2-2 (C) 4.2 17:24:49 10° NW 17:29:47 69° NE 17:32:40 34° ESE
Cosmos 2266 Rocket 4.2 17:25:08 10° SSE 17:30:59 45° E 17:36:46 10° NNE
Helios 1A Rocket 3.1 17:27:09 10° S 17:31:18 73° WSW 17:35:28 10° NNW
SeaSat 1 4.5 17:27:57 10° NNE 17:31:45 23° NW 17:35:33 10° W
NOSS 2-1 (D) 3.7 17:29:09 10° WSW 17:32:22 47° NW 17:33:06 40° N
Cosmos 2298 Rocket 4.3 17:27:32 10° S 17:32:34 45° ESE 17:32:59 44° E
Cosmos 389 Rocket 3.1 17:29:29 10° N 17:32:01 43° N 17:32:01 43° N
CZ-3B R/B 3.8 17:33:10 10° W 17:36:03 32° SSW 17:43:43 10° SSE
Cosmos 2026 Rocket 4.4 17:30:37 10° SSW 17:36:43 65° WNW 17:43:00 10° N
Cosmos 44 4.2 17:31:57 10° WSW 17:36:44 46° NW 17:39:31 24° NNE
SJ 16-02 3.8 17:36:20 10° W 17:39:34 20° NW 17:42:48 10° N
Cosmos 1689 Rocket 4.1 17:41:34 21° SSW 17:41:34 21° SSW 17:42:42 10° SSW
YAOGAN 1 3.5 17:36:15 10° S 17:40:27 48° W 17:44:41 10° NNW
Cosmos 1553 Rocket 4.3 17:34:43 10° NNW 17:41:06 70° W 17:47:22 10° S
NOSS 3-4 (A) 4.5 17:35:17 10° NW 17:41:11 35° NNE 17:43:11 30° NE
NOSS 3-4 (C) 4.5 17:35:24 10° NW 17:41:17 35° NNE 17:43:17 30° NE
In-Cosmos 22 Rocket 4.2 17:37:42 10° S 17:43:21 59° E 17:47:28 18° NNE
Cosmos 2082 Rocket 2.6 17:39:23 10° NW 17:45:03 62° WSW 17:50:39 10° SSE
Cosmos 1844 Rocket 4.4 17:40:21 10° W 17:45:12 28° NW 17:49:50 11° NNE
HJ-1C 4.2 17:47:04 35° SSW 17:48:05 50° W 17:51:23 10° NNW
Cosmos 1269 Rocket 4.3 17:43:54 10° NNW 17:48:35 46° NE 17:48:35 46° NE
Cosmos 1825 Rocket 4.1 17:46:05 10° SSW 17:50:26 59° WNW 17:54:51 10° N
X-37B 3.5 17:50:26 10° SW 17:51:26 11° SSW 17:51:36 11° SSW
NOSS 2-2 (E) 4.4 17:47:48 10° NW 17:53:03 84° SW 17:56:04 35° SE
ISS -2.5 17:51:26 10° W 17:53:50 41° WSW 17:53:50 41° WSW
Meteor 2-21 4.3 17:50:56 10° S 17:56:56 64° E 18:03:02 10° NNE
MetOp-A 4.0 17:56:25 60° SE 17:57:16 71° ENE 18:02:37 10° NNW
ATLAS 2AS CENTAUR R/B 3.7 17:51:43 10° WNW 17:58:51 37° N 18:00:54 32° NE
Cosmos 2315 Rocket 3.8 17:53:23 10° N 17:59:39 69° ENE 18:01:36 45° SE
ERS-2 3.5 17:58:38 28° NNW 17:59:57 38° WNW 18:03:20 10° SW
CZ-4 R/B 3.6 17:56:56 10° SSW 18:00:19 26° W 18:03:40 10° NW
Cosmos 2227 Rocket 4.3 17:58:08 10° NNW 18:00:30 12° N 18:01:04 12° NNE
ATLAS 5 CENTAUR R/B 3.4 17:56:44 10° NW 18:00:41 24° N 18:00:57 24° NNE
Cosmos 883 Rocket 4.3 17:54:28 10° N 18:00:43 81° ENE 18:05:21 19° SSE
CSL-04 Rocket 4.3 17:59:05 10° S 18:04:27 56° W 18:09:55 10° NNW
Meteor 2-14 Rocket 4.3 17:58:59 10° S 18:05:00 69° E 18:11:05 10° NNE
USA 234 3.3 18:05:52 52° ENE 18:07:21 66° NNE 18:13:50 10° WNW
S3M 4.3 18:01:33 10° NNW 18:07:34 63° W 18:13:36 10° S
IRS-1A Rocket 4.2 18:08:25 68° ESE 18:08:55 72° ENE 18:14:46 10° NNW
Ariane Rocket 3.5 18:11:25 49° N 18:11:25 49° N 18:15:13 10° NNW
CZ-4C R/B 3.4 18:04:57 10° NW 18:10:54 38° NNE 18:11:46 37° NE
Cosmos 1346 Rocket 4.4 18:10:05 10° SW 18:13:40 33° WNW 18:15:11 25° NNW
Cosmos 1655 Rocket 4.0 18:07:32 10° SSW 18:13:47 82° W 18:20:03 10° N
Cosmos 2278 Rocket 2.7 18:09:14 10° SW 18:14:50 58° NW 18:17:11 34° N
Cosmos 1953 Rocket 4.4 18:12:45 10° SSW 18:16:57 48° WNW 18:17:58 40° NNW
USA 281 3.8 18:17:58 40° NNE 18:17:58 40° NNE 18:23:20 10° NNW
Cosmos 2297 Rocket 4.3 18:21:01 10° NNW 18:23:18 14° N 18:23:18 14° N
Cosmos 44 Rocket 4.2 18:20:04 10° SW 18:23:19 42° SSW 18:23:19 42° SSW
CZ-2C R/B 3.0 18:33:46 33° N 18:36:16 66° WNW 18:41:49 10° SSW
Cosmos 909 Rocket 4.3 18:54:12 10° NW 19:00:09 72° W 19:00:09 72° W
USA 234 4.4 19:53:12 37° WNW 19:53:12 37° WNW 19:56:57 10° WNW
ATLAS 2AS CENTAUR R/B 3.9 19:43:34 10° NW 19:48:21 40° NNW 19:48:21 40° NNW
CZ-4C R/B 4.1 19:53:33 10° NW 19:56:58 34° NW 19:56:58 34° NW
